Regional Weather Roundup
Issued by NWS

Home | Current Version | Previous Version | Graphics & Text | Print | Product List | Glossary Off
Versions: 1 2 3 4 5 6 7 8 9 10 11 12 13 14 15 16 17 18 19 20 21 22 23 24 25 26 27 28 29 30 31 32 33 34 35 36 37 38 39 40 41 42 43 44 45 46 47 48 49 50

000
ASUS43 KDMX 280607
RWRIA

WEATHER ROUNDUP FOR IOWA
NATIONAL WEATHER SERVICE DES MOINES IA
1200 AM CST SUN DEC 28 2014

NOTE: "FAIR" INDICATES FEW OR NO CLOUDS BELOW 12,000 FEET WITH NO
SIGNIFICANT WEATHER AND/OR OBSTRUCTIONS TO VISIBILITY.

* - THESE STATIONS ARE NOT NWS STATIONS...THUS NOT UNDER NWS
QUALITY CONTROL.  THEY ALSO DO NOT REPORT WEATHER SUCH
AS PRECIPITATION OR FOG.

IAZ001>003-012>014-020>022-031>034-043>046-280700-
   NORTHWEST IOWA

CITY           SKY/WX    TMP DP  RH WIND       PRES   REMARKS
CARROLL *      CLEAR     16  10  79 NW6       30.17F WCI   7
CHEROKEE *     CLEAR      6   4  94 S3        30.16F
DENISON *      CLEAR     12  12 100 SW5       30.17S WCI   4
LE MARS *      CLEAR      5   3  92 S5        30.15F WCI  -4
ORANGE CITY *  CLEAR      9   7  92 CALM      30.12F FOG
SHELDON *      CLEAR      5   3  92 S5        30.11F WCI  -4
SIOUX CITY     CLEAR      7   3  84 E8        30.18F WCI  -6
6HR MIN TEMP:   6; 6HR MAX TEMP:  13;

SPENCER        CLEAR      6   2  83 SW8       30.13F WCI  -7
6HR MIN TEMP:   5; 6HR MAX TEMP:  12;

STORM LAKE *   CLEAR     10   9  92 W9        30.15F WCI  -2
$$

IAZ055>058-069>071-079>083-090>094-280700-
   SOUTHWEST IOWA

CITY           SKY/WX    TMP DP  RH WIND       PRES   REMARKS
ATLANTIC *     CLEAR     14  12  92 SW6       30.20F WCI   5
AUDUBON *      CLEAR     14   9  79 SW5       30.17F WCI   6
CLARINDA *     CLEAR     14  14 100 SW3       30.25F
COUNCIL BLFS * CLEAR     19  18  93 SW8       30.18F WCI   9
CRESTON *      CLEAR     14  12  92 W7        30.20F WCI   4
HARLAN  *      CLEAR     12  12 100 CALM      30.22F
LAMONI         CLEAR     19  16  88 W6        30.21F WCI  11
6HR MIN TEMP:  19; 6HR MAX TEMP:  26;

RED OAK *      CLEAR     16  14  93 S3        30.22F
SHENANDOAH *   CLEAR     16  14  93 SE5       30.23F WCI   9
$$

IAZ047>049-059>061-072>074-084-280700-
   CENTRAL IOWA

CITY           SKY/WX    TMP DP  RH WIND       PRES   REMARKS
AMES           CLEAR     17  13  84 CALM      30.20S
6HR MIN TEMP:  17; 6HR MAX TEMP:  23;

ANKENY *       CLEAR     18  14  86 CALM      30.20F
CHARITON *     CLEAR     19  18  93 W6        30.21F WCI  11
DES MOINES       N/A     19  14  81 W5        30.20F WCI  12
6HR MIN TEMP:  19; 6HR MAX TEMP:  26;

GRINNELL*      CLEAR     19  16  86 W7        30.20S WCI  10
KNOXVILLE *    CLEAR     18  14  86 W6        30.19F WCI   9
MARSHALLTOWN   CLEAR     17  13  84 W8        30.18S WCI   7
6HR MIN TEMP:  14; 6HR MAX TEMP:  21;

PELLA *        CLEAR     20  17  90 NW3       30.22F
PERRY *          N/A     16  14  93 CALM      30.20S
$$

IAZ004>006-015-016-023>025-035-036-280700-
   NORTH CENTRAL IOWA

CITY           SKY/WX    TMP DP  RH WIND       PRES   REMARKS
ALGONA *       CLEAR     10   7  85 SW9       30.15F WCI  -2
CLARION *      CLEAR      7   5  92 W5        30.17F WCI  -2
ESTHERVILLE    CLEAR     11   8  88 SW10      30.12F WCI  -3
6HR MIN TEMP:   8; 6HR MAX TEMP:  14;

FORT DODGE *   CLEAR     10   7  85 W5        30.18F WCI   2
MASON CITY     CLEAR     13   8  81 W12       30.15F WCI  -1
6HR MIN TEMP:  12; 6HR MAX TEMP:  16;

FOREST CITY *  CLEAR     12   9  85 SW5       30.14F WCI   4
IOWA FALLS *     N/A     16  12  86 W9        30.18F WCI   4
$$

IAZ007>011-017>019-026>030-037>042-050>054-066-280700-
   NORTHEAST IOWA

CITY           SKY/WX    TMP DP  RH WIND       PRES   REMARKS
CEDAR RAPIDS   CLEAR     15  13  91 W9        30.18F WCI   3
6HR MIN TEMP:  15; 6HR MAX TEMP:  25;

CHARLES CITY * CLEAR     14  10  85 W7        30.15F WCI   4
CLINTON *      CLEAR     21  16  79 W12       30.19F WCI   9
DECORAH *      CLEAR     16  12  86 W6        30.13F WCI   7
DUBUQUE        CLEAR     18  13  80 W6        30.14F WCI  10
6HR MIN TEMP:  18; 6HR MAX TEMP:  26;

MONTICELLO *   CLEAR     19  16  86 W6        30.17F WCI  11
OELWEIN *      CLEAR     18  14  86 W9        30.16F WCI   6
WATERLOO       CLEAR     16  13  88 W5        30.18F WCI   9
6HR MIN TEMP:  16; 6HR MAX TEMP:  20;

$$

IAZ064-065-067-068-078-280700-
   EAST CENTRAL IOWA

CITY           SKY/WX    TMP DP  RH WIND       PRES   REMARKS
DAVENPORT      CLEAR     21  16  81 W12       30.19S WCI   9
6HR MIN TEMP:  21; 6HR MAX TEMP:  30;

IOWA CITY      CLEAR     19  16  88 W5        30.21F WCI  12
6HR MIN TEMP:  18; 6HR MAX TEMP:  28;

MT. PLEASANT * CLOUDY    26  20  78 NW10G16   30.21F WCI  16
MUSCATINE *    PTCLDY    23  19  86 W5        30.22F WCI  17
QUAD CITIES    CLEAR     24  18  77 W15       30.19S WCI  11
6HR MIN TEMP:  24; 6HR MAX TEMP:  32;

$$

IAZ062-063-075>077-085>089-095>099-280700-
   SOUTHEAST IOWA

CITY           SKY/WX    TMP DP  RH WIND       PRES   REMARKS
BURLINGTON     CLOUDY    28  22  78 W8        30.20F WCI  20
6HR MIN TEMP:  28; 6HR MAX TEMP:  31;

FAIRFIELD *    CLOUDY    27  19  74 W9G15     30.21F WCI  17
FORT MADISON * CLOUDY    30  25  80 W9        30.21F WCI  22
KEOKUK *       CLOUDY    28  23  80 NW8       30.21F WCI  20
OSKALOOSA *      N/A     21  19  92 NW7       30.21F WCI  12
CENTERVILLE *  CLEAR     23  21  93 SW5       30.23S WCI  17
OTTUMWA        MOCLDY    24  18  77 W8        30.20F WCI  15
6HR MIN TEMP:  24; 6HR MAX TEMP:  28;

WASHINGTON *   CLOUDY    25  23  93 W8        30.21S WCI  16
$$

ABBREVIATIONS USED IN REMARKS
   TC - TEMPERATURES IN CELSIUS
  WCI - WIND CHILL INDEX
   HX - HEAT INDEX
  VSB - VISIBILITY
$$




USA.gov is the U.S. government's official web portal to all federal, state and local government web resources and services.